Hartford, CT

8:41 PM EDT on June 24, 2018 (GMT -0400)
Hartford-brainard

Weather History for KHFD - August, 2017

Change the Weather History Date:

Sunday, August 13, 2017

  Actual Average Record
Temperature  
Mean Temperature 77 °F -  
Max Temperature 84 °F 79 °F 98 °F (2005)
Min Temperature 68 °F 60 °F 46 °F (1957)
Cooling Degree Days 12    
Growing Degree Days 27 (Base 50)    
Moisture  
Dew Point 66 °F    
Average Humidity 75    
Maximum Humidity 100    
Minimum Humidity 42    
Precipitation  
Precipitation 0.00 in - - ()
Sea Level Pressure  
Sea Level Pressure 29.89 in    
Wind  
Wind Speed 5 mph (West)    
Max Wind Speed 13 mph    
Max Gust Speed 21 mph    
Visibility 10 miles    
Events      
Averages and records for this station are not official NWS values.
T = Trace of Precipitation, MM = Missing Value Source: NWS Daily Summary

Daily Weather History Graph

Daily Weather History Graph

Search for Another Location

Airport or City:

Astronomy

Aug. 13, 2017 Rise Set
Actual Time 5:57 AM EDT 7:52 PM EDT
Civil Twilight 5:27 AM EDT 8:22 PM EDT
Nautical Twilight 4:50 AM EDT 8:59 PM EDT
Astronomical Twilight 4:10 AM EDT 9:39 PM EDT
Moon 11:20 PM EDT (8/13) 11:58 AM EDT (8/13)
Length of Visible Light 14h 55m
Length of Day
13h 55m
Waning Gibbous, 65% of the Moon is Illuminated
Aug 13
Waning Gibbous
Aug 14
Last Quarter
Aug 21
New
Aug 29
First Quarter
Sep 6
Full

Hourly Weather History & Observations

Time (EDT) Temp. Heat Index Dew Point Humidity Pressure Visibility Wind Dir Wind Speed Gust Speed Precip Events Conditions
12:53 AM 72.0 °F - 69.1 °F 91% 29.87 in 10.0 mi SSE 5.8 mph - N/A   Overcast
1:13 AM 72.0 °F - 69.1 °F 91% 29.86 in 10.0 mi South 5.8 mph - N/A   Overcast
1:25 AM 72.0 °F - 70.0 °F 93% 29.86 in 10.0 mi South 5.8 mph - N/A   Overcast
1:53 AM 73.0 °F - 70.0 °F 90% 29.86 in 10.0 mi South 4.6 mph - N/A   Overcast
2:13 AM 72.0 °F - 70.0 °F 93% 29.86 in 10.0 mi South 4.6 mph - N/A   Mostly Cloudy
2:31 AM 72.0 °F - 70.0 °F 93% 29.86 in 10.0 mi South 3.5 mph - N/A   Mostly Cloudy
2:53 AM 73.0 °F - 70.0 °F 90% 29.86 in 10.0 mi SSW 4.6 mph - N/A   Overcast
3:16 AM 72.0 °F - 70.0 °F 93% 29.84 in 10.0 mi South 3.5 mph - N/A   Overcast
3:27 AM 72.0 °F - 70.0 °F 93% 29.84 in 10.0 mi Calm Calm - N/A   Overcast
3:53 AM 73.0 °F - 70.0 °F 90% 29.84 in 10.0 mi SSW 4.6 mph - N/A   Overcast
4:08 AM 73.0 °F - 70.0 °F 90% 29.83 in 10.0 mi South 3.5 mph - N/A   Overcast
4:42 AM 72.0 °F - 70.0 °F 93% 29.84 in 10.0 mi South 3.5 mph - N/A   Mostly Cloudy
4:49 AM 71.6 °F - 69.8 °F 94% 29.83 in 10.0 mi South 3.5 mph - N/A   Mostly Cloudy
4:53 AM 72.0 °F - 70.0 °F 93% 29.84 in 10.0 mi Calm Calm - N/A   Mostly Cloudy
5:04 AM 71.1 °F - 70.0 °F 96% 29.84 in 10.0 mi Calm Calm - N/A   Scattered Clouds
5:53 AM 70.0 °F - 69.1 °F 97% 29.86 in 7.0 mi Calm Calm - N/A   Partly Cloudy
6:53 AM 70.0 °F - 70.0 °F 100% 29.87 in 10.0 mi Calm Calm - N/A   Partly Cloudy
7:53 AM 73.9 °F - 66.9 °F 79% 29.88 in 10.0 mi NNW 8.1 mph - N/A   Partly Cloudy
8:53 AM 75.9 °F - 66.9 °F 74% 29.90 in 10.0 mi Variable 5.8 mph - N/A   Clear
9:53 AM 78.1 °F - 66.0 °F 66% 29.91 in 10.0 mi North 8.1 mph - N/A   Partly Cloudy
10:53 AM 79.0 °F - 63.0 °F 58% 29.91 in 10.0 mi NNW 9.2 mph - N/A   Scattered Clouds
11:53 AM 82.0 °F 83.1 °F 63.0 °F 52% 29.91 in 10.0 mi NNW 9.2 mph - N/A   Partly Cloudy
12:53 PM 82.0 °F 82.7 °F 61.0 °F 49% 29.91 in 10.0 mi NNW 12.7 mph 20.7 mph N/A   Scattered Clouds
1:53 PM 82.9 °F 82.8 °F 59.0 °F 44% 29.91 in 10.0 mi NNW 11.5 mph 19.6 mph N/A   Partly Cloudy
2:53 PM 84.0 °F 83.8 °F 59.0 °F 43% 29.91 in 10.0 mi WNW 9.2 mph - N/A   Clear
3:53 PM 84.0 °F 83.8 °F 59.0 °F 43% 29.91 in 10.0 mi NW 9.2 mph 18.4 mph N/A   Scattered Clouds
4:53 PM 84.0 °F 83.8 °F 59.0 °F 43% 29.92 in 10.0 mi North 6.9 mph - N/A   Scattered Clouds
5:53 PM 82.9 °F 82.6 °F 57.9 °F 42% 29.94 in 10.0 mi NNW 6.9 mph - N/A   Clear
6:53 PM 82.0 °F 82.0 °F 57.9 °F 44% 29.95 in 10.0 mi NW 8.1 mph - N/A   Clear
7:53 PM 79.0 °F - 57.9 °F 48% 29.96 in 10.0 mi WNW 6.9 mph - N/A   Clear
8:53 PM 77.0 °F - 59.0 °F 54% 29.98 in 10.0 mi NW 4.6 mph - N/A   Clear
9:53 PM 72.0 °F - 63.0 °F 73% 30.00 in 10.0 mi Calm Calm - N/A   Clear
10:53 PM 70.0 °F - 64.0 °F 81% 30.00 in 10.0 mi Calm Calm - N/A   Clear
11:53 PM 68.0 °F - 64.0 °F 87% 30.02 in 10.0 mi Calm Calm - N/A   Clear